Wind_Speed
15 12 15 4 4 5 2 6 7 14 3 20 19 18 20 14 7 10 24 20 21 20 16 14 12 12 12 12 12 11 10 10 9 9 8 7 6 6 5 5 4 3 2 3 4 3 3 3 3
15 13 5 3 3 2 2 17 6 24 15 19 22 19 23 19 16 9 15 25 22 18 15 14 12 12 12 12 11 10 10 9 8 8 6 6 5 4 3 2 1 1 2 3 4 4 5 5 6
13 6 2 4 3 4 7 3 3 4 18 16 10 14 7 10 7 9 29 29 21 15 13 14 12 11 11 11 10 10 9 8 7 6 5 4 3 2 0 1 2 3 5 6 7 7 8 9 9
4 4 4 2 5 6 7 6 6 9 5 16 17 10 6 15 9 15 21 23 17 15 14 13 12 11 10 9 9 9 8 7 6 5 4 3 2 1 2 3 5 6 8 9 9 10 11 12 12
5 2 2 3 2 4 6 15 18 20 15 14 10 12 8 13 26 21 19 21 19 13 13 12 11 10 10 9 8 7 6 5 4 3 3 2 3 4 5 6 8 9 10 11 12 13 14 15 16
3 2 4 5 2 4 5 8 19 18 20 18 10 12 6 18 23 21 20 22 16 12 12 12 11 10 9 8 7 6 6 5 4 4 4 5 5 5 6 7 9 10 11 12 13 15 18 19 19
5 1 6 8 13 4 5 14 15 9 10 14 10 9 8 15 19 20 21 22 17 14 15 14 13 12 11 10 9 9 8 8 8 8 9 8 9 8 6 7 9 10 12 15 16 17 19 21 22
4 1 7 8 8 4 13 8 17 14 2 3 12 7 7 9 23 22 22 26 20 17 15 15 15 16 15 14 14 15 15 12 11 8 11 14 11 13 8 8 12 13 14 16 16 19 22 21 20
4 1 9 11 11 3 11 9 3 8 10 3 6 15 15 29 27 23 21 28 26 19 14 14 14 15 15 13 13 12 12 11 10 11 11 10 12 11 13 13 11 13 13 16 18 20 21 18 20
4 2 9 9 12 7 8 9 10 12 21 18 16 16 20 26 26 21 22 21 28 24 22 14 14 15 11 10 12 11 10 9 11 12 13 11 10 10 9 8 11 13 12 14 16 14 15 16 22
7 10 12 15 6 4 2 5 10 11 14 21 21 18 14 17 19 19 21 25 29 25 18 15 16 18 13 13 15 12 9 6 7 8 10 9 7 9 9 9 7 12 13 15 16 18 20 23 27
6 13 14 11 6 3 5 10 3 13 16 21 19 16 11 8 9 19 26 30 33 26 18 12 17 19 17 18 15 12 10 6 2 3 4 6 7 7 8 8 9 10 12 14 16 17 18 23 21
9 8 8 8 8 8 5 8 9 10 22 20 17 13 10 8 14 22 30 35 34 30 20 15 14 14 11 9 9 10 6 4 2 6 1 8 9 9 10 11 10 11 11 15 16 20 23 25 25
10 7 8 4 6 4 2 7 11 16 19 18 14 11 9 8 18 25 31 30 29 31 26 17 16 12 10 9 8 4 2 1 2 3 7 8 8 10 12 12 12 13 15 18 21 23 26 24 33
8 4 1 5 4 4 4 5 8 12 16 16 13 10 9 9 23 22 26 29 31 29 22 18 15 13 9 8 7 5 3 4 9 10 12 12 13 14 15 15 15 18 18 23 23 23 26 35 30
8 3 3 9 3 3 9 4 3 11 17 15 13 9 8 10 17 25 28 25 24 24 22 17 17 15 10 9 6 4 5 8 13 12 12 15 17 13 13 14 16 19 19 22 27 24 19 20 24
2 3 7 9 10 7 7 4 10 7 10 11 11 10 9 9 13 28 28 27 23 19 16 13 10 8 9 6 3 5 11 13 17 15 10 12 12 10 10 13 15 16 18 19 21 24 26 27 26
7 8 9 9 8 10 7 7 8 6 10 11 11 10 10 11 12 31 31 28 24 21 16 13 10 7 2 4 5 9 13 10 11 12 14 13 13 16 19 23 25 27 29 27 25 26 25 22 21
11 7 10 9 10 12 10 8 10 9 12 10 10 11 11 13 16 33 37 35 32 29 26 21 14 7 6 2 3 7 14 14 14 14 12 18 20 25 28 32 30 23 19 16 14 18 25 24 24
10 10 9 9 7 8 10 9 9 6 11 15 15 12 13 12 10 22 31 36 36 33 28 20 14 13 10 5 5 6 10 9 11 14 20 23 28 32 30 21 19 20 23 20 19 21 23 19 15
9 3 6 6 9 2 6 2 4 8 5 11 15 15 10 15 17 13 22 32 35 29 22 21 19 14 11 8 4 7 10 14 19 24 26 29 29 24 17 22 21 21 22 23 23 23 20 21 19
6 8 6 10 7 2 3 5 6 7 11 8 14 12 11 11 14 12 21 18 27 30 30 28 21 16 14 13 14 15 14 16 19 24 25 25 19 17 23 23 23 26 28 29 28 24 23 20 20
8 1 5 6 6 6 9 3 6 8 6 9 12 15 11 11 13 15 16 31 32 33 28 22 20 18 16 16 15 16 16 16 22 20 23 15 24 30 29 24 28 31 30 27 24 22 22 23 21
8 3 8 6 4 4 6 4 8 7 5 7 2 11 10 5 19 20 31 34 30 31 28 25 23 20 17 16 16 16 17 19 21 20 23 26 27 24 22 25 32 24 25 24 25 24 24 24 25
4 7 3 4 3 5 4 4 13 2 5 6 11 10 16 21 22 20 20 25 27 30 28 25 24 22 18 17 18 19 19 18 19 24 27 28 24 22 25 26 25 27 28 29 26 25 26 25 25
5 8 6 5 2 5 5 3 5 6 8 8 8 8 18 20 15 17 22 27 28 29 28 26 24 23 20 20 20 19 20 22 25 26 23 22 24 23 26 27 31 29 29 30 28 26 26 26 25
5 2 10 6 4 3 4 7 2 7 7 7 5 12 18 22 21 20 24 24 26 29 29 26 25 23 22 21 21 21 22 23 23 21 22 21 24 26 28 31 28 28 27 28 28 27 27 27 27
7 4 2 1 2 5 2 5 2 8 10 9 3 10 18 20 20 18 21 26 26 28 27 25 23 22 21 21 20 20 20 20 20 21 23 25 28 30 29 25 27 28 28 27 27 26 26 26 28
1 3 3 4 5 5 2 4 3 3 5 8 19 6 18 19 18 17 21 26 27 29 27 25 22 21 21 20 19 18 19 19 20 21 23 26 26 26 26 27 28 28 29 30 29 28 29 27 28
8 3 5 5 6 1 2 3 7 10 7 6 5 19 11 18 17 16 24 25 25 24 26 24 20 20 19 17 17 16 17 20 22 25 24 22 25 26 27 27 28 29 29 30 29 29 29 28 28
Wind_Direction
310 311 300 296 40 77 42 71 27 301 15 72 77 79 78 53 90 119 130 119 119 115 110 106 105 98 96 102 107 103 98 99 100 101 98 103 105 104 101 97 100 99 46 14 8 359 353 348 344
312 318 244 274 88 59 121 116 183 244 112 107 89 83 69 69 74 87 123 122 114 108 111 110 109 104 101 100 101 102 103 104 102 97 97 105 116 116 112 106 97 26 339 338 336 332 327 322 317
307 299 63 155 192 206 165 262 182 207 121 105 81 55 52 102 84 93 96 121 115 109 118 115 112 110 108 107 105 105 104 103 102 96 95 97 105 116 123 293 295 302 307 311 314 311 309 306 303
305 327 325 96 253 284 170 199 222 38 47 85 114 70 41 86 106 121 116 112 108 108 122 119 119 118 116 111 108 103 100 99 95 92 87 83 83 39 306 296 298 303 305 306 305 304 304 303 302
258 285 277 256 196 225 211 184 105 48 63 48 89 113 94 79 125 125 129 121 114 111 119 120 119 119 119 114 111 106 101 92 84 70 46 14 348 330 312 307 305 305 304 304 304 304 301 297 295
304 119 335 292 23 258 297 69 103 101 87 31 85 117 125 126 135 133 134 128 127 116 120 119 118 118 115 112 107 99 91 81 63 43 18 354 341 319 311 318 313 308 308 309 312 311 307 300 296
212 316 247 287 295 198 217 126 127 135 151 161 149 137 143 147 156 151 146 145 136 115 125 125 120 117 109 103 96 87 77 71 60 54 35 14 348 335 323 333 328 329 333 330 323 319 319 308 301
193 77 299 273 294 24 146 135 148 130 219 123 157 141 157 149 157 143 147 156 150 129 121 125 110 112 98 89 91 89 83 77 58 43 23 19 29 16 343 333 340 331 329 330 327 324 322 318 316
273 300 277 281 292 92 180 119 269 139 133 213 156 126 135 127 148 153 160 156 145 140 138 135 124 123 106 86 97 102 89 69 47 30 46 23 32 45 34 15 5 352 345 334 331 333 332 326 319
159 205 247 273 303 205 130 105 148 134 119 106 104 116 146 154 165 170 147 137 137 124 147 161 148 153 124 107 113 105 107 81 55 57 55 48 44 20 7 359 353 358 357 357 351 343 338 346 333
252 232 250 266 236 122 27 99 154 138 123 138 139 147 171 185 186 164 153 137 119 117 117 107 99 160 150 122 123 109 122 115 57 54 63 61 44 23 32 3 21 355 338 339 337 323 319 325 327
230 244 241 264 320 154 181 120 86 104 143 141 141 154 171 194 205 141 131 131 124 117 118 122 107 108 106 106 117 115 132 144 58 137 76 63 16 356 358 345 346 332 324 321 318 316 315 320 307
245 255 273 284 327 333 107 123 116 109 127 133 141 156 158 192 86 108 123 126 127 123 135 138 130 118 117 123 121 103 100 79 31 188 332 325 317 300 298 302 299 305 302 312 308 302 306 314 308
238 234 262 312 276 304 20 114 94 123 126 130 136 146 165 133 114 113 121 131 134 138 144 147 144 143 150 140 137 124 105 9 343 239 299 289 281 270 280 277 280 289 293 294 298 298 304 294 309
291 318 244 300 260 275 130 85 132 140 131 138 150 159 167 139 125 127 130 134 140 146 148 156 161 164 166 154 157 179 238 256 284 274 276 286 287 291 290 284 269 291 294 294 296 300 296 300 295
293 351 318 263 199 307 91 264 327 160 145 153 154 157 155 145 140 135 139 142 144 146 149 164 172 180 179 174 196 228 253 270 284 286 284 286 300 302 305 300 306 308 304 303 309 313 315 317 310
291 245 254 272 190 182 131 199 260 189 145 154 155 161 158 152 148 152 151 155 158 164 168 176 159 177 171 180 205 282 297 288 290 304 324 349 349 340 336 345 336 328 323 322 320 318 319 318 312
240 220 244 232 224 191 177 189 227 191 155 166 168 171 174 168 172 161 160 164 163 172 179 178 168 144 177 267 300 307 306 320 352 359 348 354 343 338 333 327 323 322 320 317 314 314 315 315 315
268 275 273 284 231 171 193 191 213 236 163 173 181 187 186 180 180 168 169 170 171 170 174 187 189 210 257 235 6 334 340 342 345 339 358 343 341 336 335 330 331 337 337 340 344 334 326 323 321
260 266 286 303 342 134 188 210 223 203 188 184 192 193 192 187 173 176 172 173 175 178 182 164 166 155 143 119 49 48 14 359 356 335 336 330 329 331 335 343 347 338 331 335 336 335 326 315 325
257 263 304 292 312 21 126 245 251 280 239 201 196 195 185 180 188 175 174 171 174 168 152 133 122 115 105 81 21 350 339 341 342 339 334 332 335 344 349 344 342 338 335 334 330 327 324 313 311
326 295 346 311 300 216 113 260 264 248 256 240 200 189 192 185 187 174 176 150 106 107 114 104 95 81 59 44 29 29 14 356 341 335 334 338 345 342 342 337 334 333 330 328 324 316 312 303 300
249 343 354 2 9 50 328 72 277 329 294 270 216 188 188 182 177 169 130 109 108 111 104 94 84 73 56 44 32 19 7 351 340 345 342 349 334 330 331 328 330 327 324 321 314 310 307 299 290
252 80 21 2 43 7 293 345 302 281 288 335 224 154 178 171 95 97 108 107 109 105 99 94 89 74 60 43 27 19 6 355 355 1 351 347 340 339 335 330 325 324 317 316 309 303 297 292 285
254 79 12 346 345 233 223 280 242 266 86 54 77 79 94 111 112 111 110 114 107 104 93 84 77 63 52 41 33 23 15 10 7 357 349 343 336 332 326 326 321 319 317 314 308 298 292 286 282
244 138 139 232 241 256 211 251 314 106 64 49 54 92 85 95 102 100 98 98 97 95 90 80 67 57 42 30 24 17 11 3 355 352 345 337 330 324 323 325 328 323 313 308 305 299 294 286 282
263 192 200 190 278 314 246 299 12 22 42 73 68 94 95 99 100 99 95 95 91 83 77 71 64 53 40 29 18 9 1 2 357 349 342 333 335 333 331 326 321 318 316 312 307 299 294 290 283
171 211 25 356 180 247 286 325 255 1 351 1 88 111 109 105 103 100 98 95 89 82 74 64 57 49 33 19 17 11 8 360 356 353 348 345 343 340 331 327 326 325 324 319 314 307 302 294 288
38 298 273 144 139 190 190 266 175 19 340 329 335 161 127 122 115 110 101 89 84 75 65 59 48 36 25 22 16 14 5 3 2 360 359 359 349 342 340 337 330 330 329 327 322 314 309 300 293
80 120 71 87 336 355 195 268 30 358 358 146 255 101 98 111 111 105 97 88 78 73 66 59 47 36 27 24 19 13 11 14 14 14 6 8 2 358 353 349 345 340 337 336 330 321 318 311 303
Height
781 780 781 782 810 811 821 838 823 808 789 772 765 776 792 786 797 830 803 803 804 807 809 809 812 813 814 814 815 816 818 819 820 820 822 824 825 826 827 828 828 829 829 829 830 830 830 830 829
780 778 779 784 818 832 834 813 831 817 776 772 771 779 787 803 788 796 804 804 804 806 809 810 812 813 815 815 817 818 819 820 821 822 823 824 825 826 827 828 829 829 829 829 829 829 829 829 829
780 780 787 801 813 824 821 806 788 783 765 769 777 778 788 800 795 800 803 805 805 807 810 811 812 814 816 816 818 819 820 821 822 823 824 825 825 826 827 828 828 829 829 829 829 829 829 828 828
780 779 781 807 812 792 793 788 771 783 779 769 776 799 794 794 797 800 803 804 805 809 810 811 814 815 817 818 819 819 821 822 823 824 825 826 826 826 827 828 828 828 828 828 828 828 827 827 826
782 783 806 808 802 788 780 760 767 792 789 792 785 804 803 799 800 801 804 804 805 810 811 812 814 816 818 819 821 821 822 823 824 825 825 826 826 826 826 827 827 827 827 827 826 826 825 824 824
791 784 818 823 799 787 778 774 775 790 800 808 801 800 803 798 801 802 803 806 807 810 812 813 815 816 818 819 821 822 823 824 825 826 826 827 826 826 826 827 827 827 826 825 825 824 823 822 821
792 803 814 804 790 796 789 771 781 786 792 792 788 803 798 796 799 801 803 805 809 810 813 815 816 818 819 821 822 823 824 825 826 827 827 827 826 826 826 826 827 826 825 825 824 822 820 820 819
781 794 802 789 790 791 775 770 768 772 787 773 770 799 804 793 797 801 803 805 807 812 814 816 818 819 821 822 823 825 825 827 827 827 827 826 825 825 825 826 826 825 824 824 823 821 820 818 816
769 810 811 796 786 777 776 772 765 761 777 777 776 782 789 791 795 797 801 804 808 811 813 816 818 820 821 823 824 825 826 827 827 827 826 826 826 825 825 826 825 825 824 823 821 820 817 816 815
783 809 797 772 769 775 765 762 766 772 773 782 783 786 791 791 791 794 798 802 806 811 815 818 819 820 822 823 825 825 826 827 828 828 827 827 827 827 826 825 825 824 823 822 820 819 816 815 814
776 794 773 765 759 753 752 755 751 767 783 778 785 787 790 789 790 793 798 802 805 808 814 819 820 823 824 824 825 825 826 828 828 828 828 828 828 828 827 826 825 824 823 821 819 817 814 812 810
784 766 761 757 750 756 754 744 758 760 772 771 776 782 786 788 787 789 795 801 803 807 814 819 822 822 824 825 826 827 828 828 828 828 827 828 827 827 826 825 824 822 821 818 816 814 812 810 808
773 762 753 747 749 747 746 754 761 767 765 770 775 781 784 787 791 792 796 799 802 806 813 819 821 822 824 825 826 827 828 828 828 827 826 825 824 824 823 822 821 820 818 816 813 811 808 805 804
756 752 753 746 751 747 757 758 756 767 763 770 775 781 783 788 791 794 797 800 802 807 813 818 821 822 824 825 825 826 827 827 827 826 824 822 821 819 818 818 817 815 814 812 809 807 804 801 799
750 764 755 754 751 755 748 772 772 762 763 772 776 777 780 787 789 793 797 800 804 808 812 816 819 821 822 823 824 825 825 825 825 824 823 821 818 817 816 814 812 811 809 807 804 802 799 796 794
767 764 793 766 752 754 760 796 766 758 764 773 773 775 780 785 787 792 797 803 807 809 813 816 818 819 820 821 823 823 823 823 822 821 820 819 818 817 814 812 810 808 805 803 800 796 793 791 788
773 802 794 780 755 759 767 785 765 761 764 773 774 776 779 784 786 790 795 800 806 809 812 816 818 819 820 821 822 822 822 822 821 820 820 819 816 813 810 808 806 803 801 799 796 793 790 786 784
803 799 789 785 766 761 772 778 764 760 765 770 772 773 776 779 782 784 789 795 800 805 810 813 816 818 819 820 821 821 821 821 820 819 816 813 811 810 808 805 803 800 797 794 792 789 787 784 780
777 783 787 768 751 761 773 775 769 759 763 768 770 769 771 772 770 776 781 785 791 797 801 804 808 813 816 818 818 819 818 818 817 815 815 813 810 808 805 802 798 795 793 791 788 785 783 780 778
773 781 784 763 745 758 771 776 762 757 759 757 760 764 764 766 768 771 775 780 784 788 794 801 806 808 811 814 816 817 817 817 817 815 813 811 808 806 803 799 796 793 790 788 786 784 780 777 776
772 777 777 778 758 750 764 779 766 755 751 750 749 749 754 758 762 767 771 775 781 788 797 802 805 808 809 812 815 815 815 815 814 813 812 810 807 804 801 798 794 791 788 786 784 782 780 774 771
788 760 765 769 779 806 767 824 779 765 760 751 747 749 749 752 754 759 765 774 784 793 798 803 808 810 814 813 816 817 819 818 817 815 812 808 805 802 800 796 792 789 786 783 781 778 775 772 766
777 756 766 772 789 792 791 812 795 769 770 758 744 740 742 744 747 753 767 779 787 793 800 805 810 813 816 816 818 818 818 818 816 813 809 806 804 801 798 795 791 787 784 780 777 773 770 767 763
751 763 775 781 796 831 800 807 798 785 767 754 736 735 738 741 752 759 773 779 791 797 803 808 811 815 817 818 819 819 818 815 812 810 807 805 802 799 796 792 788 784 780 776 772 768 765 761 757
759 793 834 839 835 839 789 804 790 761 752 750 748 749 752 753 761 770 779 791 795 801 807 811 813 818 819 819 819 818 817 815 813 810 807 804 800 797 793 789 785 780 775 770 767 763 758 755 751
771 788 840 841 843 826 783 807 790 757 750 747 750 752 756 762 770 778 786 793 799 805 809 811 814 817 818 818 818 817 816 814 812 810 808 804 800 795 791 786 780 775 770 765 761 756 752 747 743
771 790 777 808 803 822 805 786 768 763 760 754 754 759 767 771 778 787 795 800 804 807 810 813 815 817 819 819 818 817 816 814 813 810 807 803 799 793 787 782 777 771 767 761 756 750 745 741 736
761 759 800 804 828 833 809 805 802 786 780 768 760 765 771 779 784 790 797 803 809 812 814 815 817 818 820 820 819 819 817 815 812 809 806 802 796 790 784 779 774 768 762 756 750 744 739 734 728
769 780 777 793 811 839 843 820 793 793 788 782 774 764 776 779 783 791 798 804 809 812 815 816 819 820 821 821 821 819 817 815 812 809 805 800 794 788 783 776 770 763 757 751 744 739 732 727 721
762 789 796 826 827 822 822 827 802 797 785 776 780 769 782 779 785 794 800 806 810 816 817 820 823 823 824 823 822 820 817 815 811 807 804 799 794 787 781 774 767 761 754 747 741 734 728 722 715